Regional Weather Roundup
Issued by NWS

Home | Current Version | Previous Version | Text Only | Print | Product List | Glossary On
Versions: 1 2 3 4 5 6 7 8 9 10 11 12 13 14 15 16 17 18 19 20 21 22 23 24 25 26 27 28 29 30 31 32 33 34 35 36 37 38 39 40 41 42 43 44 45 46 47 48 49 50
000
ASUS43 KTOP 111459
RWRKS

WEATHER ROUNDUP FOR KANSAS
NATIONAL WEATHER SERVICE GOODLAND KS
1000 AM CDT FRI JUL 11 2014

NOTE:  "FAIR" INDICATES FEW OR NO CLOUDS BELOW 12,000 FEET WITH NO
SIGNIFICANT WEATHER AND/OR OBSTRUCTIONS TO VISIBILITY.

KSZ001>006-013>018-027>032-041>047-111600-
NORTHWEST KANSAS

CITY           SKY/WX    TMP DP  RH WIND       PRES   REMARKS
GOODLAND       SUNNY     79  55  43 S6        30.02S
HAYS           SUNNY    N/A N/A N/A W13       29.98R
HILL CITY      MOSUNNY   81  66  60 NE10      30.00R
RUSSELL        SUNNY     82  62  50 SW13      29.97R
$$

KSZ061>065-074>080-084>089-111600-
SOUTHWEST KANSAS

CITY           SKY/WX    TMP DP  RH WIND       PRES   REMARKS
DODGE CITY     SUNNY     82  57  42 SW13      30.04R
ELKHART          N/A     84  56  38 SW14        N/A
GARDEN CITY    SUNNY     83  58  42 SW14G25   30.01S
GREAT BEND     SUNNY     82  61  47 SW9       30.00R
LIBERAL        SUNNY     84  57  39 SW23      30.07S
$$

KSZ066>073-081>083-090>101-111600-
SOUTHEAST KANSAS

CITY           SKY/WX    TMP DP  RH WIND       PRES   REMARKS
CHANUTE        SUNNY     80  69  69 S14       30.08R
COFFEYVILLE    SUNNY     82  71  69 S17       30.07S
HUTCHINSON     SUNNY     81  65  58 S13       30.02R
MEDICINE LODGE   N/A     81  65  58 S10       30.02R
NEWTON         SUNNY     81  63  54 S16       30.06S
PARSONS        SUNNY     80  71  74 S9G18     30.09S
WICHITA INTL   MOSUNNY   81  67  62 S16       30.02S
WICHITA JABRA  MOSUNNY   81  68  64 S16       30.03S
WINFIELD       SUNNY     82  69  64 S16       30.06S
$$

KSZ007>012-019>026-033>040-048>060-102>105-111600-
NORTHEAST KANSAS

CITY           SKY/WX    TMP DP  RH WIND       PRES   REMARKS
CONCORDIA      MOSUNNY   75  68  78 SE8       30.00S
EMPORIA        MOSUNNY   78  69  73 S12       30.04R
LAWRENCE       MOSUNNY   79  68  69 S10       30.04S
MANHATTAN      PTSUNNY   81  67  62 W6        30.01R
OLATHE IND     MOSUNNY   79  69  71 S13       30.06S
OLATHE EXE     MOSUNNY   77  69  76 S10       30.06R
SALINA         MOSUNNY   85  66  53 S15       29.98R
TOPEKA BILLARD MOSUNNY   80  69  69 S10       30.02F
TOPEKA FORBES  SUNNY     79  67  66 S16       30.03S
$$


USA.gov is the U.S. government's official web portal to all federal, state and local government web resources and services.